Location: Haram ta Haram Freeway
(35.0583°N, 51.4202°E)
Time: 08:57:49
(UTC+04:30)

ISS - Visible Passes

Search period start: 05 July 2022 00:00
Search period end: 15 July 2022 00:00
Orbit: 414 x 420 km, 51.6° (Epoch: 04 July)

Date Brightness Start Highest point End Pass type
(mag) Time Alt. Az. Time Alt. Az. Time Alt. Az.
05 Jul -0.7 02:45:36 12° NNW 02:45:36 12° NNW 02:46:53 10° N visible
06 Jul -0.4 01:58:50 12° N 01:58:50 12° N 01:59:23 10° NNE visible
10 Jul -0.7 05:12:40 10° NNW 05:15:02 18° NNE 05:17:23 10° ENE visible
11 Jul -0.4 04:25:05 10° N 04:26:32 12° NNE 04:27:57 10° NE visible
11 Jul -2.0 21:05:54 10° SSE 21:07:32 13° SE 21:08:02 13° ESE visible
11 Jul -1.7 22:40:44 10° WSW 22:45:45 23° NNE 22:47:12 10° NE visible
12 Jul -2.3 05:12:12 10° NW 05:15:25 42° NE 05:18:37 10° ESE visible
12 Jul -3.9 21:52:20 10° SW 21:55:39 88° SE 21:58:59 10° NE visible
12 Jul -0.3 23:31:12 10° NW 23:32:48 13° NNW 23:34:25 10° N visible
13 Jul -1.3 04:24:09 10° NNW 04:27:00 25° NE 04:29:52 10° E visible
13 Jul -3.5 21:04:13 10° SSW 21:07:23 43° SE 21:10:35 10° ENE visible
13 Jul -0.8 22:41:50 10° WNW 22:44:17 19° NNW 22:46:44 10° NNE visible
14 Jul -0.6 03:36:15 10° NNW 03:38:32 17° NNE 03:40:47 10° ENE visible
14 Jul -3.7 05:12:13 10° WNW 05:15:29 54° SW 05:18:46 10° SSE visible
14 Jul -1.6 21:52:51 10° W 21:55:48 29° NW 21:58:47 10° NNE visible
